Location: *
(46.1833°N, 22.7667°E)
Time: 06:17:32
(UTC+00:00)

In-Cosmos 22 - Pass Details

Date: 17 September 2019
Orbit: 785 x 876 km, 81.2° (Epoch: 19 October)

Event Time Altitude Azimuth Distance (km) Brightness Sun altitude
Rises 18:17:06 0° 350° (N) 3,299 7.8 -17.6°
Reaches altitude 10° 18:19:29 10° 352° (N) 2,373 6.9 -18.0°
Maximum altitude 18:24:50 74° 78° (ENE) 840 4.0 -18.8°
Enters shadow 18:28:06 25° 160° (SSE) 1,603 5.3 -19.3°
